Location: Naloco
(16.5478°S, 37.1017°E)
Time: 02:25:42
(UTC+00:00)

Cosmos 1606 - Pass Details

Date: 13 August 2020
Orbit: 502 x 529 km, 82.5° (Epoch: 23 September)

Event Time Altitude Azimuth Distance (km) Brightness Sun altitude
Rises 16:29:20 0° 357° (N) 2,590 6.4 -16.5°
Reaches altitude 10° 16:31:27 10° 358° (N) 1,709 5.5 -17.0°
Maximum altitude 16:35:11 84° 83° (E) 513 2.5 -17.8°
Drops below altitude 10° 16:38:58 10° 174° (S) 1,724 5.2 -18.7°
Enters shadow 16:39:03 10° 174° (S) 1,757 5.2 -18.8°
